Flag for U.S.A. Weather past 2 weeks in Pomona, California, U.S.A.

Now
67 °F

Fog.


Feels Like: 67 °F
Forecast: 65 / 91 °F
Wind: No wind

Location: Chino Airport

Current Time: Aug 3, 2015 at 4:03:17 AM

Latest Report: Aug 3, 2015 at 2:53 AM


Visibility: 6 mi

Pressure: 29.87 "Hg

Humidity: 87%

Dew point: 63 °F

Location of PomonaLocation

Historic Weather in Pomona — Graph

°F

Pomona temperature yesterday

Maximum temperature yesterday: 93 °F (at 2:53 PM)
Minimum temperature yesterday: 65 °F (at 4:53 AM)
Average temperature yesterday: 77 °F

Past Weeks' High & Low Weather Summary

 TemperatureHumidityPressure
High98 °F (Jul 31, 2:53 PM)91% (Jul 19, 3:58 PM)30.08 "Hg (Jul 19, 3:58 PM)
Low63 °F (Jul 28, 5:53 AM)20% (Jul 25, 2:53 PM)29.80 "Hg (Jul 28, 4:53 PM)
Average78 °F63%29.93 "Hg
* Reported Jul 19 2:53 AM — Aug 3 2:53 AM, Pomona, Weather by CustomWeather, © 2015

Note: Actual official high and low records may vary slightly from our data, if they occured in-between our weather recording intervals... More about our weather records

Advertising

Pomona weather history for previous 24 hours

 ConditionsComfort  
Time TempWeatherWind HumidityBarometerVisibility
2:53 AM
Mon, Aug 3
67 °FFog.No wind87%29.87 "Hg6 mi
1:53 AM67 °FFog.No wind87%29.87 "Hg6 mi
12:53 AM69 °FClear.No wind84%29.87 "Hg8 mi
11:53 PM
Sun, Aug 2
70 °FClear.7 mph81%29.87 "Hg9 mi
10:53 PM72 °FClear.6 mph76%29.86 "Hg9 mi
9:53 PM74 °FClear.8 mph71%29.85 "Hg9 mi
8:53 PM75 °FClear.8 mph69%29.84 "Hg9 mi
7:53 PM79 °FPassing clouds.10 mph58%29.82 "Hg10 mi
6:53 PM82 °FPassing clouds.14 mph53%29.81 "Hg10 mi
5:53 PM87 °FPassing clouds.15 mph45%29.80 "Hg10 mi
4:53 PM90 °FPassing clouds.17 mph39%29.80 "Hg10 mi
3:53 PM93 °FPassing clouds.13 mph36%29.82 "Hg10 mi
2:53 PM93 °FPassing clouds.12 mph34%29.84 "Hg10 mi
1:53 PM92 °FPassing clouds.14 mph37%29.85 "Hg10 mi
12:53 PM88 °FPassing clouds.12 mph43%29.88 "Hg10 mi
11:53 AM88 °FPassing clouds.12 mph45%29.89 "Hg10 mi
10:53 AM82 °FPassing clouds.3 mph51%29.90 "Hg8 mi
9:53 AM78 °FHaze.5 mph62%29.91 "Hg6 mi
8:53 AM73 °FHaze.6 mph76%29.93 "Hg5 mi
7:53 AM69 °FScattered clouds.6 mph84%29.91 "Hg4 mi
6:53 AM67 °FFog.No wind87%29.91 "Hg5 mi
5:53 AM66 °FClear.3 mph87%29.89 "Hg7 mi
4:53 AM65 °FClear.5 mph91%29.88 "Hg7 mi
Weather by CustomWeather, © 2015

See weather overviewHow to use our weather pages